Time,TemperatureF,DewpointF,PressureIn,WindDirection,WindDirectionDegrees,WindSpeedMPH,WindSpeedGustMPH,Humidity,HourlyPrecipIn,Conditions,Clouds,dailyrainin,SoftwareType,DateUTC
2013-11-08 00:05:00,66.9,64.2,29.48,SW,225,0.0,0.0,91,0.00,,,0.08,meteohub,2013-11-08 06:05:00,
2013-11-08 00:10:00,66.9,64.2,29.49,WNW,293,0.0,0.0,91,0.00,,,0.08,meteohub,2013-11-08 06:10:00,
2013-11-08 00:15:00,66.9,64.6,29.48,WNW,293,0.0,0.0,92,0.00,,,0.00,meteohub,2013-11-08 06:15:00,
2013-11-08 00:20:00,66.9,64.6,29.48,WNW,293,0.0,0.0,92,0.00,,,0.00,meteohub,2013-11-08 06:20:00,
2013-11-08 00:25:00,66.7,64.4,29.48,North,-999,-999.0,0.0,92,0.00,,,0.00,meteohub,2013-11-08 06:25:00,
2013-11-08 00:30:00,66.6,64.2,29.47,North,-999,-999.0,0.0,92,0.00,,,0.00,meteohub,2013-11-08 06:30:00,
2013-11-08 00:35:00,66.6,64.2,29.49,NNE,23,4.0,-999.0,92,0.00,,,0.00,meteohub,2013-11-08 06:35:00,
2013-11-08 00:40:00,66.4,64.0,29.48,NNE,23,4.0,4.0,92,0.00,,,0.00,meteohub,2013-11-08 06:40:00,
2013-11-08 00:45:00,66.4,64.2,29.47,NNE,23,3.0,4.0,93,0.00,,,0.00,meteohub,2013-11-08 06:45:00,
2013-11-08 00:50:00,66.4,64.2,29.47,NNE,23,5.0,5.0,93,0.00,,,0.00,meteohub,2013-11-08 06:50:00,
2013-11-08 00:55:00,66.2,64.0,29.47,NNE,23,3.0,5.0,93,0.00,,,0.00,meteohub,2013-11-08 06:55:00,
2013-11-08 01:00:00,66.2,64.4,29.47,North,-999,-999.0,5.0,94,0.00,,,0.00,meteohub,2013-11-08 07:00:00,
2013-11-08 01:05:00,66.2,64.0,29.47,NNE,23,1.0,5.0,93,0.00,,,0.00,meteohub,2013-11-08 07:05:00,
2013-11-08 01:10:00,66.2,64.0,29.47,NNE,23,0.0,4.0,93,0.00,,,0.00,meteohub,2013-11-08 07:10:00,
2013-11-08 01:15:00,66.2,64.0,29.47,NNE,23,4.0,4.0,93,0.00,,,0.00,meteohub,2013-11-08 07:15:00,
2013-11-08 01:20:00,66.2,64.0,29.47,NNE,23,2.0,5.0,93,0.00,,,0.00,meteohub,2013-11-08 07:20:00,
2013-11-08 01:25:00,66.0,64.2,29.46,NNE,23,0.0,5.0,94,0.00,,,0.00,meteohub,2013-11-08 07:25:00,
2013-11-08 01:30:00,66.0,63.9,29.47,NNE,23,0.0,5.0,93,0.00,,,0.00,meteohub,2013-11-08 07:30:00,
2013-11-08 01:35:00,66.0,63.9,29.46,NNE,23,0.0,3.0,93,0.00,,,0.00,meteohub,2013-11-08 07:35:00,
2013-11-08 01:40:00,66.0,63.9,29.47,NNE,23,0.0,1.0,93,0.00,,,0.00,meteohub,2013-11-08 07:40:00,
2013-11-08 01:45:00,65.8,63.7,29.46,NNE,23,3.0,3.0,93,0.00,,,0.00,meteohub,2013-11-08 07:45:00,
2013-11-08 01:50:00,65.8,63.7,29.46,North,-999,-999.0,3.0,93,0.00,,,0.00,meteohub,2013-11-08 07:50:00,
2013-11-08 01:55:00,65.7,63.5,29.46,NNE,23,3.0,3.0,93,0.00,,,0.00,meteohub,2013-11-08 07:55:00,
2013-11-08 02:00:00,65.7,63.5,29.47,NNE,23,0.0,4.0,93,0.00,,,0.00,meteohub,2013-11-08 08:00:00,
2013-11-08 02:05:00,65.8,63.7,29.47,NNE,23,0.0,4.0,93,0.00,,,0.00,meteohub,2013-11-08 08:05:00,
2013-11-08 02:10:00,65.8,63.7,29.47,NNE,23,4.0,4.0,93,0.00,,,0.00,meteohub,2013-11-08 08:10:00,
2013-11-08 02:15:00,66.0,63.9,29.47,NNE,23,0.0,4.0,93,0.00,,,0.00,meteohub,2013-11-08 08:15:00,
2013-11-08 02:20:00,66.0,63.9,29.47,South,180,0.0,4.0,93,0.00,,,0.00,meteohub,2013-11-08 08:20:00,
2013-11-08 02:25:00,66.0,63.9,29.47,NNE,23,0.0,4.0,93,0.00,,,0.00,meteohub,2013-11-08 08:25:00,
2013-11-08 02:31:00,66.0,63.9,29.47,SW,225,0.0,1.0,93,0.00,,,0.00,meteohub,2013-11-08 08:31:00,
2013-11-08 02:36:00,65.8,63.5,29.47,SW,225,0.0,0.0,92,0.00,,,0.00,meteohub,2013-11-08 08:36:00,
2013-11-08 02:41:00,66.0,63.7,29.47,SW,225,0.0,0.0,92,0.00,,,0.00,meteohub,2013-11-08 08:41:00,
2013-11-08 02:46:00,65.8,63.5,29.47,SW,225,0.0,0.0,92,0.00,,,0.00,meteohub,2013-11-08 08:46:00,
2013-11-08 02:51:00,65.8,63.5,29.47,SW,225,0.0,0.0,92,0.00,,,0.00,meteohub,2013-11-08 08:51:00,
2013-11-08 02:56:00,65.7,63.0,29.46,WNW,293,0.0,0.0,91,0.00,,,0.00,meteohub,2013-11-08 08:56:00,
2013-11-08 03:01:00,65.5,62.8,29.46,NNE,23,0.0,0.0,91,0.00,,,0.00,meteohub,2013-11-08 09:01:00,
2013-11-08 03:06:00,65.5,62.8,29.46,NNE,23,0.0,0.0,91,0.00,,,0.00,meteohub,2013-11-08 09:06:00,
2013-11-08 03:11:00,65.5,62.8,29.46,NNE,23,0.0,0.0,91,0.00,,,0.00,meteohub,2013-11-08 09:11:00,
2013-11-08 03:16:00,65.3,62.6,29.46,North,-999,-999.0,0.0,91,0.00,,,0.00,meteohub,2013-11-08 09:16:00,
2013-11-08 03:21:00,65.3,63.0,29.47,North,-999,-999.0,0.0,92,0.00,,,0.00,meteohub,2013-11-08 09:21:00,
2013-11-08 03:26:00,65.1,62.8,29.47,North,-999,-999.0,-999.0,92,0.00,,,0.00,meteohub,2013-11-08 09:26:00,
2013-11-08 03:31:00,64.9,62.6,29.47,North,-999,-999.0,-999.0,92,0.00,,,0.00,meteohub,2013-11-08 09:31:00,
2013-11-08 03:36:00,64.8,62.6,29.46,North,-999,-999.0,-999.0,93,0.00,,,0.00,meteohub,2013-11-08 09:36:00,
2013-11-08 03:41:00,64.4,62.4,29.47,North,-999,-999.0,-999.0,93,0.00,,,0.00,meteohub,2013-11-08 09:41:00,
2013-11-08 03:46:00,64.2,62.2,29.48,NNE,23,0.0,0.0,93,0.00,,,0.00,meteohub,2013-11-08 09:46:00,
2013-11-08 03:51:00,64.0,62.1,29.47,SW,225,0.0,0.0,93,0.00,,,0.00,meteohub,2013-11-08 09:51:00,
2013-11-08 03:56:00,64.0,62.1,29.47,NNE,23,0.0,2.0,93,0.00,,,0.00,meteohub,2013-11-08 09:56:00,
2013-11-08 04:01:00,64.0,62.1,29.47,SW,225,0.0,2.0,93,0.00,,,0.00,meteohub,2013-11-08 10:01:00,
2013-11-08 04:06:00,64.0,62.2,29.47,SW,225,0.0,2.0,94,0.00,,,0.00,meteohub,2013-11-08 10:06:00,
2013-11-08 04:11:00,63.9,62.1,29.47,SW,225,0.0,2.0,94,0.00,,,0.00,meteohub,2013-11-08 10:11:00,
2013-11-08 04:16:00,63.9,62.1,29.48,SW,225,0.0,2.0,94,0.00,,,0.00,meteohub,2013-11-08 10:16:00,
2013-11-08 04:21:00,63.7,61.9,29.47,SW,225,0.0,1.0,94,0.00,,,0.00,meteohub,2013-11-08 10:21:00,
2013-11-08 04:26:00,63.7,61.9,29.48,NNE,23,0.0,1.0,94,0.00,,,0.00,meteohub,2013-11-08 10:26:00,
2013-11-08 04:31:00,63.7,61.9,29.48,NNE,23,0.0,0.0,94,0.00,,,0.00,meteohub,2013-11-08 10:31:00,
2013-11-08 04:36:00,63.7,61.9,29.48,NNE,23,0.0,0.0,94,0.00,,,0.00,meteohub,2013-11-08 10:36:00,
2013-11-08 04:41:00,63.7,61.9,29.48,North,-999,-999.0,0.0,94,0.00,,,0.00,meteohub,2013-11-08 10:41:00,
2013-11-08 04:46:00,63.5,61.7,29.49,North,-999,-999.0,0.0,94,0.00,,,0.00,meteohub,2013-11-08 10:46:00,
2013-11-08 04:51:00,63.5,61.7,29.49,North,-999,-999.0,-999.0,94,0.00,,,0.00,meteohub,2013-11-08 10:51:00,
2013-11-08 04:56:00,63.3,61.5,29.48,NNE,23,0.0,0.0,94,0.00,,,0.00,meteohub,2013-11-08 10:56:00,
2013-11-08 05:01:00,63.3,61.5,29.49,SW,225,0.0,0.0,94,0.00,,,0.00,meteohub,2013-11-08 11:01:00,
2013-11-08 05:06:00,63.3,61.3,29.49,SW,225,0.0,1.0,93,0.01,,,0.01,meteohub,2013-11-08 11:06:00,
2013-11-08 05:11:00,63.3,61.5,29.50,SW,225,3.0,3.0,94,0.01,,,0.01,meteohub,2013-11-08 11:11:00,
2013-11-08 05:16:00,63.3,61.5,29.49,SW,225,0.0,3.0,94,0.01,,,0.01,meteohub,2013-11-08 11:16:00,
2013-11-08 05:21:00,63.3,61.5,29.50,SW,225,0.0,3.0,94,0.01,,,0.01,meteohub,2013-11-08 11:21:00,
2013-11-08 05:26:00,63.1,61.3,29.49,WNW,293,2.0,3.0,94,0.01,,,0.01,meteohub,2013-11-08 11:26:00,
2013-11-08 05:31:00,63.1,61.3,29.50,SW,225,0.0,3.0,94,0.01,,,0.01,meteohub,2013-11-08 11:31:00,
2013-11-08 05:36:00,63.1,61.3,29.50,SW,225,0.0,3.0,94,0.01,,,0.01,meteohub,2013-11-08 11:36:00,
2013-11-08 05:41:00,63.1,61.3,29.50,West,270,0.0,2.0,94,0.01,,,0.01,meteohub,2013-11-08 11:41:00,
2013-11-08 05:46:00,63.1,61.3,29.50,North,-999,-999.0,0.0,94,0.01,,,0.01,meteohub,2013-11-08 11:46:00,
2013-11-08 05:51:00,63.3,61.5,29.50,North,-999,-999.0,0.0,94,0.01,,,0.01,meteohub,2013-11-08 11:51:00,
2013-11-08 05:56:00,63.5,61.7,29.52,North,-999,-999.0,-999.0,94,0.01,,,0.01,meteohub,2013-11-08 11:56:00,
2013-11-08 06:01:00,63.9,62.1,29.51,NW,315,0.0,0.0,94,0.01,,,0.01,meteohub,2013-11-08 12:01:00,
2013-11-08 06:06:00,64.6,63.1,29.52,NW,315,0.0,0.0,95,0.00,,,0.01,meteohub,2013-11-08 12:06:00,
2013-11-08 06:11:00,65.3,63.5,29.52,NW,315,0.0,0.0,94,0.00,,,0.01,meteohub,2013-11-08 12:11:00,
2013-11-08 06:16:00,66.0,63.9,29.52,WNW,293,0.0,0.0,93,0.00,,,0.01,meteohub,2013-11-08 12:16:00,
2013-11-08 06:21:00,66.2,63.1,29.53,WNW,293,0.0,0.0,90,0.00,,,0.01,meteohub,2013-11-08 12:21:00,
2013-11-08 06:26:00,66.7,63.3,29.52,NW,315,0.0,1.0,89,0.00,,,0.01,meteohub,2013-11-08 12:26:00,
2013-11-08 06:31:00,67.6,64.0,29.53,WNW,293,0.0,1.0,88,0.00,,,0.01,meteohub,2013-11-08 12:31:00,
2013-11-08 06:36:00,67.8,63.9,29.53,WNW,293,0.0,1.0,87,0.00,,,0.01,meteohub,2013-11-08 12:36:00,
2013-11-08 06:41:00,67.3,63.0,29.52,WNW,293,2.0,4.0,86,0.00,,,0.01,meteohub,2013-11-08 12:41:00,
2013-11-08 06:46:00,67.1,62.8,29.53,WNW,293,3.0,4.0,86,0.00,,,0.01,meteohub,2013-11-08 12:46:00,
2013-11-08 06:51:00,67.3,63.0,29.53,NW,315,6.0,6.0,86,0.00,,,0.01,meteohub,2013-11-08 12:51:00,
2013-11-08 06:56:00,67.6,63.3,29.53,WNW,293,2.0,6.0,86,0.00,,,0.01,meteohub,2013-11-08 12:56:00,
2013-11-08 07:01:00,68.0,63.3,29.54,WNW,293,4.0,6.0,85,0.00,,,0.01,meteohub,2013-11-08 13:01:00,
2013-11-08 07:06:00,68.4,63.7,29.52,WNW,293,0.0,6.0,85,0.00,,,0.01,meteohub,2013-11-08 13:06:00,
2013-11-08 07:11:00,69.1,64.4,29.53,WNW,293,4.0,6.0,85,0.00,,,0.01,meteohub,2013-11-08 13:11:00,
2013-11-08 07:16:00,69.1,64.0,29.54,NW,315,0.0,5.0,84,0.00,,,0.01,meteohub,2013-11-08 13:16:00,
2013-11-08 07:21:00,69.1,64.0,29.54,NW,315,0.0,7.0,84,0.00,,,0.01,meteohub,2013-11-08 13:21:00,
2013-11-08 07:26:00,69.3,64.2,29.54,West,270,1.0,7.0,84,0.00,,,0.01,meteohub,2013-11-08 13:26:00,
2013-11-08 07:31:00,69.4,64.0,29.54,WNW,293,0.0,5.0,83,0.00,,,0.01,meteohub,2013-11-08 13:31:00,
2013-11-08 07:36:00,70.0,64.2,29.55,SW,225,1.0,4.0,82,0.00,,,0.01,meteohub,2013-11-08 13:36:00,
2013-11-08 07:41:00,70.2,64.0,29.54,WNW,293,0.0,1.0,81,0.00,,,0.01,meteohub,2013-11-08 13:41:00,
2013-11-08 07:47:00,70.3,64.2,29.54,NNE,23,0.0,1.0,81,0.00,,,0.01,meteohub,2013-11-08 13:47:00,
2013-11-08 07:52:00,71.6,64.8,29.54,WNW,293,3.0,3.0,79,0.00,,,0.01,meteohub,2013-11-08 13:52:00,
2013-11-08 07:57:00,72.9,64.4,29.53,WNW,293,2.0,3.0,75,0.00,,,0.01,meteohub,2013-11-08 13:57:00,
2013-11-08 08:02:00,73.6,65.1,29.54,WNW,293,2.0,6.0,75,0.00,,,0.01,meteohub,2013-11-08 14:02:00,
2013-11-08 08:07:00,74.5,65.3,29.53,NW,315,2.0,6.0,73,0.00,,,0.01,meteohub,2013-11-08 14:07:00,
2013-11-08 08:12:00,75.4,65.3,29.53,WNW,293,2.0,5.0,71,0.00,,,0.01,meteohub,2013-11-08 14:12:00,
2013-11-08 08:17:00,75.4,64.6,29.54,NW,315,4.0,5.0,69,0.00,,,0.01,meteohub,2013-11-08 14:17:00,
2013-11-08 08:22:00,74.3,64.2,29.53,SW,225,3.0,5.0,71,0.00,,,0.01,meteohub,2013-11-08 14:22:00,
2013-11-08 08:27:00,73.8,64.2,29.52,WNW,293,5.0,5.0,72,0.00,,,0.01,meteohub,2013-11-08 14:27:00,
2013-11-08 08:32:00,73.9,64.4,29.52,NW,315,0.0,5.0,72,0.00,,,0.01,meteohub,2013-11-08 14:32:00,
2013-11-08 08:37:00,73.9,63.5,29.52,NNE,23,3.0,5.0,70,0.00,,,0.01,meteohub,2013-11-08 14:37:00,
2013-11-08 08:42:00,75.2,64.4,29.52,NNE,23,1.0,5.0,69,0.00,,,0.01,meteohub,2013-11-08 14:42:00,
2013-11-08 08:47:00,76.3,64.0,29.52,NNE,23,5.0,5.0,66,0.00,,,0.01,meteohub,2013-11-08 14:47:00,
2013-11-08 08:52:00,75.2,63.5,29.52,SW,225,6.0,6.0,67,0.00,,,0.01,meteohub,2013-11-08 14:52:00,
2013-11-08 08:57:00,74.5,63.7,29.51,WNW,293,2.0,6.0,69,0.00,,,0.01,meteohub,2013-11-08 14:57:00,
2013-11-08 09:02:00,75.7,64.0,29.50,SW,225,4.0,6.0,67,0.00,,,0.01,meteohub,2013-11-08 15:02:00,
2013-11-08 09:07:00,76.5,64.2,29.51,NNE,23,3.0,6.0,66,0.00,,,0.01,meteohub,2013-11-08 15:07:00,
2013-11-08 09:12:00,77.0,63.9,29.50,West,270,3.0,5.0,64,0.00,,,0.01,meteohub,2013-11-08 15:12:00,
2013-11-08 09:17:00,77.5,63.9,29.49,SW,225,4.0,5.0,63,0.00,,,0.01,meteohub,2013-11-08 15:17:00,
2013-11-08 09:22:00,77.9,64.2,29.49,WNW,293,2.0,5.0,63,0.00,,,0.01,meteohub,2013-11-08 15:22:00,
2013-11-08 09:27:00,77.7,63.1,29.50,SW,225,4.0,6.0,61,0.00,,,0.01,meteohub,2013-11-08 15:27:00,
2013-11-08 09:32:00,77.0,63.5,29.49,NNE,23,4.0,6.0,63,0.00,,,0.01,meteohub,2013-11-08 15:32:00,
2013-11-08 09:37:00,77.0,63.5,29.49,NNE,23,6.0,6.0,63,0.00,,,0.01,meteohub,2013-11-08 15:37:00,
2013-11-08 09:42:00,77.7,64.0,29.49,West,270,2.0,6.0,63,0.00,,,0.01,meteohub,2013-11-08 15:42:00,
2013-11-08 09:47:00,79.7,63.1,29.48,SW,225,9.0,9.0,57,0.00,,,0.01,meteohub,2013-11-08 15:47:00,
2013-11-08 09:52:00,78.6,62.6,29.47,NNE,23,3.0,10.0,58,0.00,,,0.01,meteohub,2013-11-08 15:52:00,
2013-11-08 09:57:00,79.2,63.1,29.47,WNW,293,3.0,10.0,58,0.00,,,0.01,meteohub,2013-11-08 15:57:00,
2013-11-08 10:02:00,79.7,63.1,29.47,NW,315,4.0,10.0,57,0.00,,,0.01,meteohub,2013-11-08 16:02:00,
2013-11-08 10:07:00,80.4,63.3,29.46,NW,315,5.0,7.0,56,0.00,,,0.01,meteohub,2013-11-08 16:07:00,
2013-11-08 10:12:00,81.0,63.3,29.46,NW,315,5.0,8.0,55,0.00,,,0.01,meteohub,2013-11-08 16:12:00,
2013-11-08 10:17:00,80.4,63.3,29.45,West,270,9.0,9.0,56,0.00,,,0.01,meteohub,2013-11-08 16:17:00,
2013-11-08 10:22:00,79.0,63.0,29.46,NW,315,6.0,11.0,58,0.00,,,0.01,meteohub,2013-11-08 16:22:00,
2013-11-08 10:27:00,79.3,62.2,29.46,WNW,293,8.0,11.0,56,0.00,,,0.01,meteohub,2013-11-08 16:27:00,
2013-11-08 10:32:00,80.2,62.1,29.44,NW,315,3.0,13.0,54,0.00,,,0.01,meteohub,2013-11-08 16:32:00,
2013-11-08 10:38:00,80.2,62.6,29.45,NNE,23,2.0,13.0,55,0.00,,,0.01,meteohub,2013-11-08 16:38:00,
2013-11-08 10:43:00,80.4,63.3,29.43,West,270,5.0,13.0,56,0.00,,,0.01,meteohub,2013-11-08 16:43:00,
2013-11-08 10:48:00,79.0,63.0,29.42,West,270,7.0,8.0,58,0.00,,,0.01,meteohub,2013-11-08 16:48:00,
2013-11-08 10:53:00,78.4,63.9,29.43,West,270,8.0,8.0,61,0.00,,,0.01,meteohub,2013-11-08 16:53:00,
2013-11-08 10:58:00,77.9,64.2,29.42,West,270,6.0,8.0,63,0.00,,,0.01,meteohub,2013-11-08 16:58:00,
2013-11-08 11:03:00,77.4,64.8,29.42,West,270,6.0,8.0,65,0.00,,,0.01,meteohub,2013-11-08 17:03:00,
2013-11-08 11:08:00,77.2,64.6,29.42,NW,315,8.0,9.0,65,0.00,,,0.01,meteohub,2013-11-08 17:08:00,
2013-11-08 11:13:00,76.8,64.9,29.41,SW,225,10.0,10.0,67,0.00,,,0.01,meteohub,2013-11-08 17:13:00,
2013-11-08 11:18:00,76.1,65.1,29.42,West,270,3.0,10.0,69,0.00,,,0.01,meteohub,2013-11-08 17:18:00,
2013-11-08 11:23:00,75.7,65.7,29.41,NW,315,8.0,10.0,71,0.00,,,0.01,meteohub,2013-11-08 17:23:00,
2013-11-08 11:28:00,75.4,65.7,29.41,NW,315,10.0,10.0,72,0.00,,,0.01,meteohub,2013-11-08 17:28:00,
2013-11-08 11:33:00,75.0,66.6,29.41,SW,225,3.0,10.0,75,0.00,,,0.01,meteohub,2013-11-08 17:33:00,
2013-11-08 11:38:00,74.5,66.7,29.41,West,270,4.0,10.0,77,0.00,,,0.01,meteohub,2013-11-08 17:38:00,
2013-11-08 11:43:00,74.5,67.1,29.40,NW,315,4.0,10.0,78,0.00,,,0.01,meteohub,2013-11-08 17:43:00,
2013-11-08 11:48:00,74.5,66.7,29.40,WNW,293,6.0,8.0,77,0.00,,,0.01,meteohub,2013-11-08 17:48:00,
2013-11-08 11:53:00,75.9,67.5,29.40,NW,315,8.0,8.0,75,0.00,,,0.01,meteohub,2013-11-08 17:53:00,
2013-11-08 11:58:00,78.1,67.5,29.39,NW,315,9.0,10.0,70,0.00,,,0.01,meteohub,2013-11-08 17:58:00,
2013-11-08 12:03:00,78.4,67.5,29.39,NW,315,7.0,10.0,69,0.00,,,0.01,meteohub,2013-11-08 18:03:00,
2013-11-08 12:08:00,77.9,66.9,29.38,NW,315,8.0,10.0,69,0.00,,,0.01,meteohub,2013-11-08 18:08:00,
2013-11-08 12:13:00,77.7,66.7,29.37,WNW,293,6.0,9.0,69,0.00,,,0.01,meteohub,2013-11-08 18:13:00,
2013-11-08 12:18:00,77.5,66.6,29.37,WNW,293,4.0,9.0,69,0.00,,,0.01,meteohub,2013-11-08 18:18:00,
2013-11-08 12:23:00,78.3,67.3,29.37,NNE,23,1.0,9.0,69,0.00,,,0.01,meteohub,2013-11-08 18:23:00,
2013-11-08 12:28:00,79.0,66.6,29.37,NW,315,4.0,8.0,66,0.00,,,0.01,meteohub,2013-11-08 18:28:00,
2013-11-08 12:33:00,79.2,66.4,29.36,West,270,7.0,8.0,65,0.00,,,0.01,meteohub,2013-11-08 18:33:00,
2013-11-08 12:38:00,79.2,66.4,29.35,West,270,6.0,8.0,65,0.00,,,0.01,meteohub,2013-11-08 18:38:00,
2013-11-08 12:43:00,79.5,66.2,29.35,SW,225,10.0,10.0,64,0.00,,,0.01,meteohub,2013-11-08 18:43:00,
2013-11-08 12:48:00,78.4,66.6,29.35,WNW,293,3.0,10.0,67,0.00,,,0.01,meteohub,2013-11-08 18:48:00,
2013-11-08 12:53:00,77.7,65.8,29.35,SW,225,10.0,10.0,67,0.00,,,0.01,meteohub,2013-11-08 18:53:00,
2013-11-08 12:58:00,75.7,66.9,29.34,WNW,293,11.0,11.0,74,0.00,,,0.01,meteohub,2013-11-08 18:58:00,
2013-11-08 13:03:00,75.0,67.3,29.34,NW,315,6.0,12.0,77,0.00,,,0.01,meteohub,2013-11-08 19:03:00,
2013-11-08 13:09:00,75.2,67.1,29.34,WNW,293,7.0,12.0,76,0.00,,,0.01,meteohub,2013-11-08 19:09:00,
2013-11-08 13:14:00,75.7,66.9,29.34,SW,225,2.0,12.0,74,0.00,,,0.01,meteohub,2013-11-08 19:14:00,
2013-11-08 13:19:00,76.6,67.3,29.34,SW,225,9.0,11.0,73,0.00,,,0.01,meteohub,2013-11-08 19:19:00,
2013-11-08 13:24:00,77.5,66.6,29.34,WNW,293,5.0,11.0,69,0.00,,,0.01,meteohub,2013-11-08 19:24:00,
2013-11-08 13:29:00,77.9,66.9,29.33,WNW,293,17.0,17.0,69,0.00,,,0.01,meteohub,2013-11-08 19:29:00,
2013-11-08 13:34:00,76.1,67.3,29.33,WNW,293,9.0,15.0,74,0.00,,,0.01,meteohub,2013-11-08 19:34:00,
2013-11-08 13:39:00,75.7,67.3,29.33,WNW,293,16.0,17.0,75,0.00,,,0.01,meteohub,2013-11-08 19:39:00,
2013-11-08 13:44:00,76.1,66.4,29.33,SW,225,13.0,17.0,72,0.00,,,0.01,meteohub,2013-11-08 19:44:00,
2013-11-08 13:49:00,76.1,66.0,29.34,WNW,293,12.0,16.0,71,0.00,,,0.01,meteohub,2013-11-08 19:49:00,
2013-11-08 13:54:00,75.9,65.5,29.33,SW,225,12.0,21.0,70,0.00,,,0.01,meteohub,2013-11-08 19:54:00,
2013-11-08 13:59:00,75.9,65.8,29.33,SW,225,11.0,21.0,71,0.00,,,0.01,meteohub,2013-11-08 19:59:00,
2013-11-08 14:04:00,75.9,65.8,29.33,WNW,293,11.0,21.0,71,0.00,,,0.01,meteohub,2013-11-08 20:04:00,
2013-11-08 14:09:00,76.3,66.6,29.33,WNW,293,10.0,14.0,72,0.00,,,0.01,meteohub,2013-11-08 20:09:00,
2013-11-08 14:14:00,76.1,66.7,29.33,WNW,293,16.0,16.0,73,0.00,,,0.01,meteohub,2013-11-08 20:14:00,
2013-11-08 14:19:00,75.6,66.4,29.33,SW,225,14.0,18.0,73,0.00,,,0.01,meteohub,2013-11-08 20:19:00,
2013-11-08 14:24:00,75.2,66.0,29.32,North,0,10.0,18.0,73,0.00,,,0.01,meteohub,2013-11-08 20:24:00,
2013-11-08 14:29:00,74.8,66.4,29.32,WNW,293,10.0,18.0,75,0.00,,,0.01,meteohub,2013-11-08 20:29:00,
2013-11-08 14:34:00,74.5,65.7,29.33,SW,225,5.0,15.0,74,0.00,,,0.01,meteohub,2013-11-08 20:34:00,
2013-11-08 14:39:00,74.8,66.4,29.33,WNW,293,5.0,14.0,75,0.00,,,0.01,meteohub,2013-11-08 20:39:00,
2013-11-08 14:44:00,74.8,66.4,29.33,WNW,293,9.0,10.0,75,0.00,,,0.01,meteohub,2013-11-08 20:44:00,
2013-11-08 14:49:00,74.3,66.6,29.33,NNE,23,3.0,10.0,77,0.00,,,0.01,meteohub,2013-11-08 20:49:00,
2013-11-08 14:54:00,74.1,66.4,29.33,WNW,293,6.0,9.0,77,0.00,,,0.01,meteohub,2013-11-08 20:54:00,
2013-11-08 14:59:00,73.4,66.9,29.34,WNW,293,4.0,9.0,80,0.00,,,0.01,meteohub,2013-11-08 20:59:00,
2013-11-08 15:04:00,72.9,66.7,29.34,NNE,23,4.0,8.0,81,0.00,,,0.01,meteohub,2013-11-08 21:04:00,
2013-11-08 15:09:00,72.0,66.2,29.34,NNE,23,5.0,8.0,82,0.00,,,0.01,meteohub,2013-11-08 21:09:00,
2013-11-08 15:14:00,71.2,66.2,29.34,SW,225,6.0,8.0,84,0.04,,,0.05,meteohub,2013-11-08 21:14:00,
2013-11-08 15:19:00,70.5,66.4,29.34,NNE,23,5.0,9.0,87,0.05,,,0.06,meteohub,2013-11-08 21:19:00,
2013-11-08 15:24:00,69.8,66.7,29.34,NNE,23,0.0,9.0,90,0.13,,,0.14,meteohub,2013-11-08 21:24:00,
2013-11-08 15:29:00,69.6,67.3,29.35,NNE,23,0.0,9.0,92,0.19,,,0.20,meteohub,2013-11-08 21:29:00,
2013-11-08 15:34:00,69.6,66.9,29.35,SW,225,0.0,8.0,91,0.19,,,0.20,meteohub,2013-11-08 21:34:00,
2013-11-08 15:39:00,69.8,67.1,29.35,NW,315,2.0,5.0,91,0.20,,,0.21,meteohub,2013-11-08 21:39:00,
2013-11-08 15:44:00,69.8,67.3,29.35,West,270,4.0,4.0,92,0.21,,,0.22,meteohub,2013-11-08 21:44:00,
2013-11-08 15:50:00,69.6,67.5,29.36,West,270,3.0,3.0,93,0.22,,,0.24,meteohub,2013-11-08 21:50:00,
2013-11-08 15:55:00,69.6,67.8,29.36,West,270,4.0,4.0,94,0.24,,,0.25,meteohub,2013-11-08 21:55:00,
2013-11-08 16:00:00,69.4,68.0,29.36,West,270,4.0,4.0,95,0.24,,,0.25,meteohub,2013-11-08 22:00:00,
2013-11-08 16:05:00,69.4,68.0,29.36,West,270,0.0,4.0,95,0.26,,,0.27,meteohub,2013-11-08 22:05:00,
2013-11-08 16:10:00,69.4,68.0,29.37,West,270,0.0,4.0,95,0.25,,,0.27,meteohub,2013-11-08 22:10:00,
2013-11-08 16:15:00,69.4,68.0,29.36,West,270,0.0,4.0,95,0.22,,,0.27,meteohub,2013-11-08 22:15:00,
2013-11-08 16:20:00,69.4,68.2,29.36,West,270,0.0,4.0,96,0.19,,,0.30,meteohub,2013-11-08 22:20:00,
2013-11-08 16:25:00,69.3,68.0,29.37,North,-999,-999.0,1.0,96,0.13,,,0.30,meteohub,2013-11-08 22:25:00,
2013-11-08 16:30:00,69.3,68.0,29.36,North,-999,-999.0,1.0,96,0.09,,,0.30,meteohub,2013-11-08 22:30:00,
2013-11-08 16:35:00,69.1,67.8,29.38,North,-999,-999.0,0.0,96,0.09,,,0.30,meteohub,2013-11-08 22:35:00,
2013-11-08 16:40:00,68.7,67.5,29.38,North,-999,-999.0,-999.0,96,0.07,,,0.31,meteohub,2013-11-08 22:40:00,
2013-11-08 16:45:00,68.7,67.5,29.39,NNE,23,0.0,0.0,96,0.09,,,0.33,meteohub,2013-11-08 22:45:00,
2013-11-08 16:50:00,68.7,67.5,29.39,SW,225,0.0,0.0,96,0.08,,,0.33,meteohub,2013-11-08 22:50:00,
2013-11-08 16:55:00,68.5,67.3,29.39,SW,225,2.0,3.0,96,0.12,,,0.38,meteohub,2013-11-08 22:55:00,
2013-11-08 17:00:00,68.5,67.3,29.40,SW,225,7.0,8.0,96,0.19,,,0.46,meteohub,2013-11-08 23:00:00,
2013-11-08 17:05:00,68.2,66.9,29.40,WNW,293,2.0,8.0,96,0.27,,,0.54,meteohub,2013-11-08 23:05:00,
2013-11-08 17:10:00,68.0,66.7,29.39,SW,225,3.0,8.0,96,0.33,,,0.60,meteohub,2013-11-08 23:10:00,
2013-11-08 17:15:00,68.0,66.7,29.40,North,-999,-999.0,7.0,96,0.34,,,0.63,meteohub,2013-11-08 23:15:00,
2013-11-08 17:20:00,68.0,67.1,29.40,North,-999,-999.0,3.0,97,0.33,,,0.63,meteohub,2013-11-08 23:20:00,
2013-11-08 17:25:00,68.0,67.1,29.41,North,-999,-999.0,-999.0,97,0.34,,,0.64,meteohub,2013-11-08 23:25:00,
2013-11-08 17:30:00,68.0,67.1,29.40,NNE,23,4.0,4.0,97,0.35,,,0.65,meteohub,2013-11-08 23:30:00,
2013-11-08 17:35:00,67.8,67.5,29.40,North,-999,-999.0,4.0,99,0.35,,,0.65,meteohub,2013-11-08 23:35:00,
2013-11-08 17:40:00,67.8,67.5,29.40,North,-999,-999.0,4.0,99,0.33,,,0.65,meteohub,2013-11-08 23:40:00,
2013-11-08 17:45:00,67.8,67.5,29.41,NNE,23,4.0,-999.0,99,0.32,,,0.65,meteohub,2013-11-08 23:45:00,
2013-11-08 17:50:00,67.6,67.3,29.41,North,-999,-999.0,5.0,99,0.30,,,0.65,meteohub,2013-11-08 23:50:00,
2013-11-08 17:55:00,67.6,67.3,29.42,North,-999,-999.0,5.0,99,0.26,,,0.65,meteohub,2013-11-08 23:55:00,
2013-11-08 18:00:00,67.6,67.3,29.42,North,-999,-999.0,-999.0,99,0.18,,,0.65,meteohub,2013-11-09 00:00:00,
2013-11-08 18:05:00,67.6,67.3,29.42,North,-999,-999.0,-999.0,99,0.07,,,0.65,meteohub,2013-11-09 00:05:00,
2013-11-08 18:10:00,67.6,67.3,29.42,NNE,23,2.0,2.0,99,0.05,,,0.66,meteohub,2013-11-09 00:10:00,
2013-11-08 18:15:00,67.6,67.3,29.42,NNE,23,0.0,3.0,99,0.04,,,0.66,meteohub,2013-11-09 00:15:00,
2013-11-08 18:20:00,67.8,67.5,29.43,NNE,23,0.0,3.0,99,0.04,,,0.66,meteohub,2013-11-09 00:20:00,
2013-11-08 18:25:00,68.0,67.5,29.43,NNE,23,0.0,3.0,98,0.02,,,0.66,meteohub,2013-11-09 00:25:00,
2013-11-08 18:30:00,67.8,67.5,29.43,NNE,23,4.0,4.0,99,0.01,,,0.66,meteohub,2013-11-09 00:30:00,
2013-11-08 18:35:00,68.0,67.5,29.43,NNE,23,4.0,4.0,98,0.01,,,0.66,meteohub,2013-11-09 00:35:00,
2013-11-08 18:40:00,68.0,67.5,29.44,NNE,23,2.0,6.0,98,0.02,,,0.67,meteohub,2013-11-09 00:40:00,
2013-11-08 18:45:00,67.8,67.5,29.44,NNE,23,4.0,6.0,99,0.02,,,0.67,meteohub,2013-11-09 00:45:00,
2013-11-08 18:50:00,67.6,67.3,29.45,NNE,23,4.0,6.0,99,0.05,,,0.70,meteohub,2013-11-09 00:50:00,
2013-11-08 18:55:00,67.5,67.1,29.46,NNE,23,5.0,5.0,99,0.05,,,0.70,meteohub,2013-11-09 00:55:00,
2013-11-08 19:01:00,67.3,66.9,29.45,NNE,23,5.0,5.0,99,0.06,,,0.71,meteohub,2013-11-09 01:01:00,
2013-11-08 19:06:00,67.3,66.9,29.45,NNE,23,0.0,5.0,99,0.07,,,0.72,meteohub,2013-11-09 01:06:00,
2013-11-08 19:11:00,67.3,66.7,29.46,North,-999,-999.0,5.0,98,0.06,,,0.72,meteohub,2013-11-09 01:11:00,
2013-11-08 19:16:00,67.1,66.6,29.46,NNE,23,2.0,2.0,98,0.08,,,0.74,meteohub,2013-11-09 01:16:00,
2013-11-08 19:21:00,66.9,66.4,29.47,NNE,23,0.0,2.0,98,0.13,,,0.79,meteohub,2013-11-09 01:21:00,
2013-11-08 19:26:00,66.7,66.2,29.47,NNE,23,0.0,2.0,98,0.13,,,0.79,meteohub,2013-11-09 01:26:00,
2013-11-08 19:31:00,66.7,66.2,29.47,NNE,23,0.0,2.0,98,0.13,,,0.79,meteohub,2013-11-09 01:31:00,
2013-11-08 19:36:00,66.7,66.2,29.47,SW,225,0.0,0.0,98,0.13,,,0.79,meteohub,2013-11-09 01:36:00,
2013-11-08 19:41:00,66.7,66.2,29.47,SW,225,0.0,0.0,98,0.12,,,0.79,meteohub,2013-11-09 01:41:00,
2013-11-08 19:46:00,66.9,66.6,29.47,North,-999,-999.0,0.0,99,0.12,,,0.79,meteohub,2013-11-09 01:46:00,
2013-11-08 19:51:00,67.1,66.7,29.47,North,-999,-999.0,0.0,99,0.09,,,0.79,meteohub,2013-11-09 01:51:00,
2013-11-08 19:56:00,67.1,66.7,29.47,NNE,23,3.0,-999.0,99,0.11,,,0.80,meteohub,2013-11-09 01:56:00,
2013-11-08 20:01:00,67.1,66.7,29.47,NNE,23,2.0,3.0,99,0.08,,,0.80,meteohub,2013-11-09 02:01:00,
2013-11-08 20:06:00,67.3,66.9,29.48,North,-999,-999.0,3.0,99,0.08,,,0.80,meteohub,2013-11-09 02:06:00,
2013-11-08 20:11:00,67.1,66.7,29.47,North,-999,-999.0,3.0,99,0.07,,,0.80,meteohub,2013-11-09 02:11:00,
2013-11-08 20:16:00,67.3,66.9,29.48,North,-999,-999.0,-999.0,99,0.04,,,0.80,meteohub,2013-11-09 02:16:00,
2013-11-08 20:21:00,67.1,66.7,29.47,North,-999,-999.0,-999.0,99,0.01,,,0.80,meteohub,2013-11-09 02:21:00,
2013-11-08 20:26:00,67.3,66.9,29.48,NNE,23,2.0,2.0,99,0.01,,,0.80,meteohub,2013-11-09 02:26:00,
2013-11-08 20:31:00,67.3,66.9,29.48,NNE,23,0.0,2.0,99,0.01,,,0.80,meteohub,2013-11-09 02:31:00,
2013-11-08 20:36:00,67.3,66.9,29.48,NNE,23,0.0,2.0,99,0.01,,,0.80,meteohub,2013-11-09 02:36:00,
2013-11-08 20:41:00,67.3,66.9,29.49,North,-999,-999.0,2.0,99,0.01,,,0.80,meteohub,2013-11-09 02:41:00,
2013-11-08 20:46:00,67.3,66.9,29.49,North,-999,-999.0,0.0,99,0.01,,,0.80,meteohub,2013-11-09 02:46:00,
2013-11-08 20:51:00,67.3,66.9,29.48,NNE,23,0.0,0.0,99,0.02,,,0.81,meteohub,2013-11-09 02:51:00,
2013-11-08 20:56:00,67.3,66.9,29.49,NNE,23,0.0,0.0,99,0.01,,,0.81,meteohub,2013-11-09 02:56:00,
2013-11-08 21:02:00,67.5,67.1,29.49,North,-999,-999.0,0.0,99,0.01,,,0.81,meteohub,2013-11-09 03:02:00,
2013-11-08 21:07:00,67.5,67.1,29.49,North,-999,-999.0,0.0,99,0.01,,,0.81,meteohub,2013-11-09 03:07:00,
2013-11-08 21:12:00,67.5,67.1,29.48,North,-999,-999.0,-999.0,99,0.01,,,0.81,meteohub,2013-11-09 03:12:00,
2013-11-08 21:17:00,67.5,67.1,29.48,North,-999,-999.0,-999.0,99,0.01,,,0.81,meteohub,2013-11-09 03:17:00,
2013-11-08 21:22:00,67.5,67.1,29.48,North,-999,-999.0,-999.0,99,0.01,,,0.81,meteohub,2013-11-09 03:22:00,
2013-11-08 21:27:00,67.3,66.9,29.48,North,-999,-999.0,-999.0,99,0.01,,,0.81,meteohub,2013-11-09 03:27:00,
2013-11-08 21:32:00,67.3,66.9,29.49,North,-999,-999.0,-999.0,99,0.01,,,0.81,meteohub,2013-11-09 03:32:00,
2013-11-08 21:37:00,67.3,66.9,29.48,North,-999,-999.0,-999.0,99,0.01,,,0.81,meteohub,2013-11-09 03:37:00,
2013-11-08 21:42:00,67.3,66.9,29.49,SW,225,0.0,-999.0,99,0.01,,,0.81,meteohub,2013-11-09 03:42:00,
2013-11-08 21:47:00,67.1,66.7,29.49,SW,225,0.0,0.0,99,0.00,,,0.81,meteohub,2013-11-09 03:47:00,
2013-11-08 21:52:00,67.5,67.1,29.47,NNE,23,0.0,0.0,99,0.00,,,0.81,meteohub,2013-11-09 03:52:00,
2013-11-08 21:57:00,67.5,67.1,29.48,SW,225,0.0,0.0,99,0.00,,,0.81,meteohub,2013-11-09 03:57:00,
2013-11-08 22:02:00,67.6,67.3,29.48,NNE,23,0.0,0.0,99,0.00,,,0.81,meteohub,2013-11-09 04:02:00,
2013-11-08 22:07:00,67.8,67.5,29.47,NNE,23,0.0,0.0,99,0.00,,,0.81,meteohub,2013-11-09 04:07:00,
2013-11-08 22:12:00,67.8,67.5,29.48,NNE,23,0.0,0.0,99,0.00,,,0.81,meteohub,2013-11-09 04:12:00,
2013-11-08 22:17:00,67.8,67.5,29.48,NNE,23,0.0,0.0,99,0.00,,,0.81,meteohub,2013-11-09 04:17:00,
2013-11-08 22:22:00,67.8,67.5,29.48,North,-999,-999.0,0.0,99,0.00,,,0.81,meteohub,2013-11-09 04:22:00,
2013-11-08 22:27:00,68.0,67.6,29.48,North,-999,-999.0,0.0,99,0.00,,,0.81,meteohub,2013-11-09 04:27:00,
2013-11-08 22:32:00,67.8,67.5,29.48,NNE,23,0.0,-999.0,99,0.00,,,0.81,meteohub,2013-11-09 04:32:00,
2013-11-08 22:37:00,67.8,67.5,29.48,North,-999,-999.0,0.0,99,0.00,,,0.81,meteohub,2013-11-09 04:37:00,
2013-11-08 22:42:00,67.8,67.5,29.48,North,-999,-999.0,0.0,99,0.00,,,0.81,meteohub,2013-11-09 04:42:00,
2013-11-08 22:47:00,67.8,67.5,29.48,NNE,23,0.0,0.0,99,0.00,,,0.81,meteohub,2013-11-09 04:47:00,
2013-11-08 22:52:00,67.8,67.5,29.49,NNE,23,0.0,0.0,99,0.00,,,0.81,meteohub,2013-11-09 04:52:00,
2013-11-08 22:57:00,67.8,67.5,29.48,SW,225,0.0,2.0,99,0.00,,,0.81,meteohub,2013-11-09 04:57:00,
2013-11-08 23:01:00,67.8,67.5,29.48,SW,225,0.0,2.0,99,0.00,,,0.81,meteohub,2013-11-09 05:01:00,
2013-11-08 23:02:00,67.8,67.5,29.49,SW,225,0.0,2.0,99,0.00,,,0.81,meteohub,2013-11-09 05:02:00,
2013-11-08 23:07:00,67.8,67.5,29.48,SW,225,1.0,2.0,99,0.00,,,0.81,meteohub,2013-11-09 05:07:00,
2013-11-08 23:12:00,67.8,67.5,29.47,NNE,23,2.0,2.0,99,0.00,,,0.81,meteohub,2013-11-09 05:12:00,
2013-11-08 23:17:00,67.8,67.5,29.47,NNE,23,0.0,4.0,99,0.00,,,0.81,meteohub,2013-11-09 05:17:00,
2013-11-08 23:22:00,67.8,67.5,29.47,NNE,23,4.0,4.0,99,0.00,,,0.81,meteohub,2013-11-09 05:22:00,
2013-11-08 23:27:00,67.6,67.1,29.47,NNE,23,0.0,4.0,98,0.00,,,0.81,meteohub,2013-11-09 05:27:00,
2013-11-08 23:32:00,67.5,66.9,29.47,NNE,23,2.0,4.0,98,0.00,,,0.81,meteohub,2013-11-09 05:32:00,
2013-11-08 23:37:00,67.5,66.6,29.47,NNE,23,5.0,5.0,97,0.00,,,0.81,meteohub,2013-11-09 05:37:00,
2013-11-08 23:42:00,67.5,66.6,29.46,South,180,0.0,5.0,97,0.00,,,0.81,meteohub,2013-11-09 05:42:00,
2013-11-08 23:47:00,67.3,66.0,29.47,NNE,23,0.0,5.0,96,0.00,,,0.81,meteohub,2013-11-09 05:47:00,
2013-11-08 23:52:00,67.3,66.0,29.47,NNE,23,0.0,5.0,96,0.00,,,0.81,meteohub,2013-11-09 05:52:00,
2013-11-08 23:57:00,67.1,65.8,29.46,NNE,23,0.0,0.0,96,0.00,,,0.81,meteohub,2013-11-09 05:57:00,